Location: Cicognara
(44.9500°N, 10.4667°E)
Time: 05:41:31
(UTC+00:00)

ATLAS 3B R/B - Pass Details

Date: 20 June 2021
Orbit: 1003 x 1191 km, 63.8° (Epoch: 21 July)

Event Time Altitude Azimuth Distance (km) Brightness Sun altitude
Rises 19:57:43 0° 193° (SSW) 3,713 5.2 -7.6°
Reaches altitude 10° 20:00:23 10° 187° (S) 2,772 4.5 -7.9°
Maximum altitude 20:06:29 45° 117° (ESE) 1,359 2.9 -8.7°
Drops below altitude 10° 20:12:48 10° 47° (NE) 2,861 5.0 -9.4°
Sets 20:15:35 0° 41° (NE) 3,844 5.7 -9.8°
